| time (UTC) | temp F | wind direction | speed MPH | gust MPH | rain 1hr in | rain 24hr in | rain mn in | humidity % | barometer mb |
| 20260903014530 | 83 | 344 | 2.0 | 9.0 | 0.00 | 0.00 | 0.00 | 44 | 1019.9 |
| 20260903013030 | 80 | 68 | 1.0 | 6.0 | 0.00 | 0.00 | 0.00 | 47 | 1020.1 |
| 20260903011518 | 80 | 21 | 3.0 | 7.0 | 0.00 | 0.00 | 0.00 | 47 | 1020.6 |
| 20260903010010 | 79 | 13 | 3.0 | 6.0 | 0.00 | 0.00 | 0.00 | 49 | 1021.0 |
| 20260902234518 | 72 | 340 | 2.0 | 5.0 | 0.00 | 0.00 | 0.00 | 64 | 1022.0 |
| 20260902233015 | 71 | 286 | 0.0 | 4.0 | 0.00 | 0.00 | 0.00 | 67 | 1022.0 |
| 20260902231514 | 70 | 335 | 1.0 | 4.0 | 0.00 | 0.00 | 0.00 | 70 | 1022.0 |
| 20260902230008 | 68 | 340 | 1.0 | 4.0 | 0.00 | 0.00 | 0.00 | 72 | 1022.1 |
| 20260902224503 | 66 | 1 | 0.0 | 2.0 | 0.00 | 0.00 | 0.00 | 76 | 1022.4 |
| 20260902223100 | 64 | 89 | 1.0 | 4.0 | 0.00 | 0.00 | 0.00 | 81 | 1022.4 |
| 20260902221555 | 62 | 303 | 0.0 | 2.0 | 0.00 | 0.00 | 0.00 | 85 | 1022.3 |
| 20260902220056 | 60 | 303 | 0.0 | 2.0 | 0.00 | 0.00 | 0.00 | 89 | 1022.3 |
| 20260902214545 | 59 | 324 | 1.0 | 4.0 | 0.00 | 0.00 | 0.00 | 91 | 1021.9 |
| 20260902213052 | 57 | 303 | 0.0 | 3.0 | 0.00 | 0.00 | 0.00 | 92 | 1022.1 |
| 20260902211548 | 55 | 269 | 0.0 | 3.0 | 0.00 | 0.00 | 0.00 | 93 | 1022.0 |
| 20260902210046 | 54 | 1 | 1.0 | 3.0 | 0.00 | 0.00 | 0.00 | 93 | 1021.9 |
| 20260902204645 | 54 | 310 | 2.0 | 4.0 | 0.00 | 0.00 | 0.00 | 93 | 1021.9 |
| 20260902203041 | 54 | 310 | 2.0 | 3.0 | 0.00 | 0.00 | 0.00 | 93 | 1021.5 |
| 20260902201529 | 54 | 306 | 1.0 | 3.0 | 0.00 | 0.00 | 0.00 | 93 | 1021.4 |
| 20260902200025 | 55 | 314 | 0.0 | 3.0 | 0.00 | 0.00 | 0.00 | 94 | 1021.1 |
| 20260902194525 | 54 | 298 | 2.0 | 4.0 | 0.00 | 0.00 | 0.00 | 93 | 1021.2 |
| 20260902193022 | 54 | 295 | 1.0 | 3.0 | 0.00 | 0.00 | 0.00 | 93 | 1021.1 |
| 20260902191533 | 54 | 286 | 0.0 | 2.0 | 0.00 | 0.00 | 0.00 | 93 | 1020.9 |
| 20260902190018 | 54 | 295 | 1.0 | 3.0 | 0.00 | 0.00 | 0.00 | 93 | 1020.6 |
| 20260902184523 | 54 | 306 | 2.0 | 5.0 | 0.00 | 0.00 | 0.00 | 92 | 1020.6 |
| 20260902183014 | 54 | 314 | 1.0 | 3.0 | 0.00 | 0.00 | 0.00 | 92 | 1020.7 |
| 20260902181510 | 55 | 1 | 0.0 | 3.0 | 0.00 | 0.00 | 0.00 | 92 | 1020.4 |
| 20260902174507 | 55 | 302 | 1.0 | 2.0 | 0.00 | 0.00 | 0.00 | 92 | 1020.4 |
| 20260902173005 | 55 | 286 | 1.0 | 2.0 | 0.00 | 0.00 | 0.00 | 92 | 1020.4 |
| 20260902171503 | 55 | 269 | 1.0 | 3.0 | 0.00 | 0.00 | 0.00 | 91 | 1020.3 |
| 20260902170059 | 55 | 298 | 1.0 | 3.0 | 0.00 | 0.00 | 0.00 | 91 | 1020.4 |
| 20260902164558 | 56 | 331 | 0.0 | 3.0 | 0.00 | 0.00 | 0.00 | 90 | 1020.4 |
| 20260902163119 | 57 | 314 | 1.0 | 3.0 | 0.00 | 0.00 | 0.00 | 90 | 1020.4 |
| 20260902161556 | 57 | 178 | 1.0 | 3.0 | 0.00 | 0.00 | 0.00 | 90 | 1020.4 |
| 20260902160050 | 56 | 277 | 2.0 | 4.0 | 0.00 | 0.00 | 0.00 | 89 | 1020.6 |
| 20260902154548 | 57 | 269 | 0.0 | 2.0 | 0.00 | 0.00 | 0.00 | 88 | 1020.8 |
| 20260902153046 | 58 | 314 | 0.0 | 2.0 | 0.00 | 0.00 | 0.00 | 88 | 1020.8 |
| 20260902151513 | 58 | 253 | 1.0 | 4.0 | 0.00 | 0.00 | 0.00 | 88 | 1021.1 |
| 20260902150011 | 57 | 281 | 2.0 | 5.0 | 0.00 | 0.00 | 0.00 | 89 | 1021.1 |
| 20260902144517 | 58 | 306 | 2.0 | 4.0 | 0.00 | 0.00 | 0.00 | 88 | 1021.1 |
| 20260902143012 | 58 | 307 | 2.0 | 4.0 | 0.00 | 0.00 | 0.00 | 88 | 1021.2 |
| 20260902141508 | 58 | 274 | 2.0 | 4.0 | 0.00 | 0.00 | 0.00 | 87 | 1021.2 |
| 20260902140112 | 59 | 279 | 2.0 | 5.0 | 0.00 | 0.00 | 0.00 | 86 | 1021.2 |
| 20260902134601 | 59 | 297 | 2.0 | 3.0 | 0.00 | 0.00 | 0.00 | 85 | 1021.3 |
| 20260902133109 | 60 | 331 | 2.0 | 4.0 | 0.00 | 0.00 | 0.00 | 84 | 1021.3 |
| 20260902130051 | 61 | 314 | 1.0 | 3.0 | 0.00 | 0.00 | 0.00 | 81 | 1021.4 |
| 20260902124549 | 63 | 1 | 2.0 | 3.0 | 0.00 | 0.00 | 0.00 | 78 | 1021.4 |
| 20260902123105 | 63 | 1 | 2.0 | 3.0 | 0.00 | 0.00 | 0.00 | 78 | 1021.4 |
| 20260902121557 | 63 | 11 | 2.0 | 4.0 | 0.00 | 0.00 | 0.00 | 78 | 1021.4 |
| 20260902114546 | 63 | 331 | 1.0 | 4.0 | 0.00 | 0.00 | 0.00 | 78 | 1021.5 |
| 20260902113044 | 64 | 347 | 1.0 | 2.0 | 0.00 | 0.00 | 0.00 | 78 | 1021.5 |
| 20260902111554 | 64 | 1 | 1.0 | 3.0 | 0.00 | 0.00 | 0.00 | 77 | 1021.4 |
| 20260902110043 | 64 | 339 | 2.0 | 5.0 | 0.00 | 0.00 | 0.00 | 77 | 1021.4 |
| 20260902104542 | 64 | 335 | 0.0 | 4.0 | 0.00 | 0.00 | 0.00 | 78 | 1021.5 |
| 20260902103043 | 64 | 327 | 1.0 | 4.0 | 0.00 | 0.00 | 0.00 | 78 | 1021.4 |
| 20260902100032 | 65 | 331 | 1.0 | 3.0 | 0.00 | 0.00 | 0.00 | 79 | 1021.1 |
| 20260902094530 | 65 | 1 | 1.0 | 3.0 | 0.00 | 0.00 | 0.00 | 79 | 1021.0 |
| 20260902093028 | 65 | 340 | 0.0 | 3.0 | 0.00 | 0.00 | 0.00 | 79 | 1020.9 |
| 20260902091528 | 65 | 314 | 2.0 | 4.0 | 0.00 | 0.00 | 0.00 | 80 | 1020.8 |
| 20260902090029 | 66 | 340 | 2.0 | 3.0 | 0.00 | 0.00 | 0.00 | 78 | 1020.8 |
| 20260902084525 | 68 | 322 | 1.0 | 4.0 | 0.00 | 0.00 | 0.00 | 76 | 1020.7 |
| 20260902083024 | 68 | 344 | 2.0 | 5.0 | 0.00 | 0.00 | 0.00 | 75 | 1020.4 |
| 20260902081523 | 69 | 342 | 2.0 | 5.0 | 0.00 | 0.00 | 0.00 | 74 | 1020.5 |
| 20260902080021 | 69 | 13 | 3.0 | 6.0 | 0.00 | 0.00 | 0.00 | 72 | 1020.3 |
| 20260902074521 | 70 | 1 | 3.0 | 6.0 | 0.00 | 0.00 | 0.00 | 70 | 1020.1 |
| 20260902073019 | 71 | 346 | 3.0 | 7.0 | 0.00 | 0.00 | 0.00 | 67 | 1020.0 |
| 20260902071521 | 71 | 337 | 3.0 | 9.0 | 0.00 | 0.00 | 0.00 | 68 | 1019.9 |
| 20260902070017 | 72 | 1 | 1.0 | 5.0 | 0.00 | 0.00 | 0.00 | 69 | 1019.6 |
| 20260902064519 | 72 | 318 | 2.0 | 4.0 | 0.00 | 0.00 | 0.00 | 67 | 1019.6 |
| 20260902061520 | 73 | 344 | 3.0 | 9.0 | 0.00 | 0.00 | 0.00 | 61 | 1019.6 |
| 20260902060009 | 74 | 305 | 3.0 | 7.0 | 0.00 | 0.00 | 0.00 | 59 | 1019.6 |
| 20260902054507 | 75 | 1 | 1.0 | 5.0 | 0.00 | 0.00 | 0.00 | 62 | 1019.6 |
| 20260902053005 | 75 | 295 | 3.0 | 8.0 | 0.00 | 0.00 | 0.00 | 63 | 1019.7 |
| 20260902051505 | 75 | 49 | 2.0 | 7.0 | 0.00 | 0.00 | 0.00 | 62 | 1019.7 |
| 20260902050008 | 75 | 84 | 2.0 | 8.0 | 0.00 | 0.00 | 0.00 | 62 | 1019.9 |
| 20260902044501 | 76 | 349 | 2.0 | 7.0 | 0.00 | 0.00 | 0.00 | 60 | 1019.9 |
| 20260902043100 | 76 | 329 | 2.0 | 7.0 | 0.00 | 0.00 | 0.00 | 59 | 1020.0 |
| 20260902041558 | 77 | 344 | 2.0 | 7.0 | 0.00 | 0.00 | 0.00 | 59 | 1020.2 |
| 20260902040050 | 77 | 354 | 3.0 | 9.0 | 0.00 | 0.00 | 0.00 | 57 | 1020.4 |
| 20260902034546 | 77 | 314 | 4.0 | 9.0 | 0.00 | 0.00 | 0.00 | 56 | 1020.5 |
| 20260902023005 | 77 | 331 | 1.0 | 5.0 | 0.00 | 0.00 | 0.00 | 53 | 1021.9 |
| 20260902021502 | 79 | 298 | 1.0 | 4.0 | 0.00 | 0.00 | 0.00 | 52 | 1022.3 |
| 20260902020115 | 76 | 331 | 1.0 | 5.0 | 0.00 | 0.00 | 0.00 | 51 | 1022.6 |